• In Russia
  • List of Countries
  • For 7 days
  • Water Temperature
  • Satellite Maps
  • Weather Map
  • Weather Widgets
  • user-avatar
    Login

    Hourly Weather Shusha

    Today, 26 July, Wednesday

    Time Temperature Precipitation Wind Pressure Humidity
    00:00 +20°C° 0 mm 2 mps 657 mmHg 64%
    01:00 +19°C° 0 mm 2 mps 656 mmHg 64%
    02:00 +20°C° 0 mm 1 mps 656 mmHg 65%
    03:00 +20°C° 0 mm 1 mps 656 mmHg 65%
    04:00 +20°C° 0 mm 1 mps 657 mmHg 64%
    05:00 +21°C° 0 mm 1 mps 657 mmHg 62%
    06:00 +21°C° 0 mm 1 mps 657 mmHg 61%
    07:00 +23°C° 0 mm 2 mps 658 mmHg 55%
    08:00 +25°C° 0 mm 2 mps 658 mmHg 49%
    09:00 +27°C° 0 mm 2 mps 658 mmHg 44%
    10:00 +28°C° 0 mm 2 mps 659 mmHg 41%
    11:00 +29°C° 0 mm 3 mps 659 mmHg 38%
    12:00 +30°C° 0 mm 3 mps 659 mmHg 34%
    13:00 +31°C° 0.1 mm 3 mps 659 mmHg 34%
    14:00 +31°C° 0.1 mm 3 mps 658 mmHg 33%
    15:00 +32°C° 0.1 mm 4 mps 658 mmHg 32%
    16:00 +32°C° 0.2 mm 4 mps 658 mmHg 34%
    17:00 +30°C° 0.2 mm 4 mps 658 mmHg 37%
    18:00 +29°C° 0.2 mm 3 mps 658 mmHg 39%
    19:00 +27°C° 0.1 mm 3 mps 658 mmHg 45%
    20:00 +25°C° 0.1 mm 2 mps 658 mmHg 52%
    21:00 +23°C° 0.1 mm 2 mps 658 mmHg 58%
    22:00 +21°C° 0 mm 2 mps 658 mmHg 58%
    23:00 +21°C° 0 mm 2 mps 658 mmHg 59%

    Tomorrow, 27 July, Thursday

    Time Temperature Precipitation Wind Pressure Humidity
    00:00 +20°C° 0 mm 2 mps 658 mmHg 59%
    01:00 +20°C° 0 mm 2 mps 658 mmHg 60%
    02:00 +20°C° 0 mm 2 mps 658 mmHg 60%
    03:00 +19°C° 0 mm 2 mps 658 mmHg 60%
    04:00 +21°C° 0 mm 1 mps 659 mmHg 59%
    05:00 +21°C° 0 mm 1 mps 659 mmHg 58%
    06:00 +22°C° 0 mm 1 mps 659 mmHg 57%
    07:00 +23°C° 0 mm 2 mps 660 mmHg 51%
    08:00 +25°C° 0 mm 2 mps 660 mmHg 44%
    09:00 +27°C° 0 mm 2 mps 661 mmHg 38%
    10:00 +28°C° 0 mm 2 mps 661 mmHg 35%
    11:00 +30°C° 0 mm 3 mps 661 mmHg 33%
    12:00 +31°C° 0 mm 3 mps 661 mmHg 30%
    13:00 +31°C° 0 mm 3 mps 661 mmHg 29%
    14:00 +33°C° 0 mm 4 mps 660 mmHg 28%
    15:00 +33°C° 0 mm 4 mps 660 mmHg 27%
    16:00 +33°C° 0 mm 4 mps 660 mmHg 29%
    17:00 +31°C° 0 mm 3 mps 660 mmHg 31%
    18:00 +30°C° 0 mm 3 mps 660 mmHg 33%
    19:00 +28°C° 0 mm 3 mps 660 mmHg 38%
    20:00 +26°C° 0 mm 2 mps 659 mmHg 42%
    21:00 +24°C° 0 mm 2 mps 659 mmHg 46%
    22:00 +23°C° 0 mm 2 mps 659 mmHg 47%
    23:00 +23°C° 0 mm 2 mps 660 mmHg 47%

    Day after tomorrow, 28 July, Friday

    Time Temperature Precipitation Wind Pressure Humidity
    00:00 +21°C° 0 mm 2 mps 660 mmHg 48%
    01:00 +21°C° 0 mm 2 mps 659 mmHg 48%
    02:00 +21°C° 0 mm 2 mps 659 mmHg 47%
    03:00 +21°C° 0 mm 2 mps 659 mmHg 47%
    04:00 +21°C° 0 mm 2 mps 659 mmHg 46%
    05:00 +21°C° 0 mm 2 mps 660 mmHg 46%
    06:00 +23°C° 0 mm 1 mps 660 mmHg 45%
    07:00 +25°C° 0 mm 2 mps 660 mmHg 40%
    08:00 +27°C° 0 mm 2 mps 661 mmHg 35%
    09:00 +29°C° 0 mm 2 mps 661 mmHg 31%
    10:00 +31°C° 0 mm 2 mps 661 mmHg 28%
    11:00 +33°C° 0 mm 3 mps 661 mmHg 26%
    12:00 +35°C° 0 mm 3 mps 661 mmHg 24%
    13:00 +35°C° 0 mm 3 mps 660 mmHg 23%
    14:00 +36°C° 0 mm 3 mps 660 mmHg 22%
    15:00 +36°C° 0 mm 3 mps 660 mmHg 22%
    16:00 +35°C° 0 mm 3 mps 660 mmHg 24%
    17:00 +34°C° 0 mm 2 mps 659 mmHg 26%
    18:00 +34°C° 0 mm 2 mps 659 mmHg 28%
    19:00 +30°C° 0 mm 2 mps 659 mmHg 32%
    20:00 +28°C° 0 mm 2 mps 659 mmHg 36%
    21:00 +26°C° 0 mm 2 mps 659 mmHg 39%
    22:00 +26°C° 0 mm 2 mps 659 mmHg 39%
    23:00 +25°C° 0 mm 2 mps 659 mmHg 39%

    29 July, Saturday

    Time Temperature Precipitation Wind Pressure Humidity
    00:00 +25°C° 0 mm 2 mps 659 mmHg 39%
    01:00 +24°C° 0 mm 2 mps 659 mmHg 39%
    02:00 +24°C° 0 mm 2 mps 659 mmHg 39%
    03:00 +24°C° 0 mm 2 mps 659 mmHg 39%
    04:00 +24°C° 0 mm 2 mps 659 mmHg 38%
    05:00 +24°C° 0 mm 2 mps 659 mmHg 38%
    06:00 +25°C° 0 mm 2 mps 660 mmHg 37%
    07:00 +27°C° 0 mm 2 mps 660 mmHg 34%
    08:00 +30°C° 0 mm 2 mps 661 mmHg 30%
    09:00 +32°C° 0 mm 2 mps 661 mmHg 26%
    10:00 +34°C° 0 mm 2 mps 661 mmHg 24%
    11:00 +36°C° 0 mm 3 mps 661 mmHg 22%
    12:00 +37°C° 0 mm 3 mps 661 mmHg 20%
    13:00 +37°C° 0 mm 3 mps 661 mmHg 19%
    14:00 +38°C° 0 mm 3 mps 661 mmHg 19%
    15:00 +38°C° 0 mm 3 mps 661 mmHg 18%
    16:00 +37°C° 0 mm 3 mps 660 mmHg 21%
    17:00 +36°C° 0 mm 2 mps 660 mmHg 23%
    18:00 +36°C° 0 mm 2 mps 660 mmHg 25%
    19:00 +32°C° 0 mm 2 mps 660 mmHg 29%
    20:00 +30°C° 0 mm 2 mps 660 mmHg 33%
    21:00 +28°C° 0 mm 2 mps 660 mmHg 37%
    22:00 +27°C° 0 mm 2 mps 660 mmHg 39%
    23:00 +26°C° 0 mm 2 mps 661 mmHg 41%

    30 July, Sunday

    Time Temperature Precipitation Wind Pressure Humidity
    00:00 +26°C° 0 mm 2 mps 661 mmHg 43%
    01:00 +25°C° 0 mm 2 mps 661 mmHg 44%
    02:00 +24°C° 0 mm 2 mps 661 mmHg 46%
    03:00 +24°C° 0 mm 1 mps 661 mmHg 47%
    04:00 +24°C° 0 mm 1 mps 661 mmHg 47%
    05:00 +24°C° 0 mm 1 mps 662 mmHg 47%
    06:00 +24°C° 0 mm 1 mps 662 mmHg 47%
    07:00 +26°C° 0 mm 2 mps 663 mmHg 42%
    08:00 +28°C° 0 mm 2 mps 663 mmHg 38%
    09:00 +30°C° 0 mm 3 mps 663 mmHg 33%
    10:00 +31°C° 0 mm 3 mps 663 mmHg 32%
    11:00 +33°C° 0 mm 3 mps 663 mmHg 30%
    12:00 +34°C° 0 mm 4 mps 663 mmHg 29%
    13:00 +34°C° 0 mm 4 mps 663 mmHg 29%
    14:00 +34°C° 0 mm 4 mps 663 mmHg 29%
    15:00 +34°C° 0 mm 4 mps 663 mmHg 29%
    16:00 +33°C° 0.1 mm 5 mps 662 mmHg 34%
    17:00 +30°C° 0.1 mm 6 mps 662 mmHg 39%
    18:00 +29°C° 0.1 mm 6 mps 662 mmHg 44%
    19:00 +27°C° 0 mm 5 mps 662 mmHg 50%
    20:00 +25°C° 0 mm 4 mps 662 mmHg 56%
    21:00 +22°C° 0 mm 3 mps 662 mmHg 62%
    22:00 +22°C° 0 mm 3 mps 663 mmHg 62%
    23:00 +23°C° 0 mm 2 mps 663 mmHg 62%

    31 July, Monday

    Time Temperature Precipitation Wind Pressure Humidity
    00:00 +21°C° 0 mm 2 mps 663 mmHg 62%
    01:00 +21°C° 0 mm 2 mps 663 mmHg 63%
    02:00 +21°C° 0 mm 1 mps 663 mmHg 63%
    03:00 +21°C° 0 mm 1 mps 663 mmHg 64%
    04:00 +21°C° 0 mm 1 mps 663 mmHg 62%
    05:00 +20°C° 0 mm 2 mps 664 mmHg 60%
    06:00 +21°C° 0 mm 2 mps 664 mmHg 58%
    07:00 +22°C° 0 mm 3 mps 665 mmHg 52%
    08:00 +25°C° 0 mm 3 mps 665 mmHg 46%
    09:00 +27°C° 0 mm 4 mps 666 mmHg 40%
    10:00 +28°C° 0 mm 5 mps 666 mmHg 38%
    11:00 +29°C° 0 mm 5 mps 666 mmHg 35%
    12:00 +30°C° 0 mm 5 mps 665 mmHg 33%
    13:00 +30°C° 0 mm 5 mps 665 mmHg 32%
    14:00 +30°C° 0 mm 5 mps 665 mmHg 32%
    15:00 +30°C° 0 mm 6 mps 665 mmHg 31%
    16:00 +29°C° 0 mm 5 mps 664 mmHg 34%
    17:00 +28°C° 0 mm 5 mps 664 mmHg 37%
    18:00 +27°C° 0 mm 5 mps 664 mmHg 40%
    19:00 +25°C° 0 mm 4 mps 664 mmHg 45%
    20:00 +22°C° 0 mm 3 mps 664 mmHg 50%
    21:00 +20°C° 0 mm 2 mps 664 mmHg 55%
    22:00 +20°C° 0 mm 2 mps 664 mmHg 56%
    23:00 +19°C° 0 mm 2 mps 664 mmHg 58%
    Show more